Погода в Бжиде

Россия / Краснодарский край     44°21′15″N   38°39′56″E
темп.,
°C
ветер,
м/с
пор.,
м/с
влажн.,
%
обл.,
%
осадки,
мм/ч
давл.,
гПа
погр.,
м
13 июня, вс
вс1300:00+18с22784 0.0 101399
03:00+18в11790 0.0 1013104
06:00+18в22815 0.0 1014152
09:00+19ююз117624 0.0 1013243
12:00+20зюз447412 0.0 1013370
15:00+21юз33713 0.0 1014444
18:00+20зюз12710 0.0 1013359
21:00+19св11770 0.0 1013107
14 июня, пн
пн1400:00+17св32821 0.0 101376
03:00+17св33745 0.0 101294
06:00+17св3372100 0.0 1011122
09:00+21ссз116885 0.0 1010169
12:00+21зюз447372 0.0 1010415
15:00+21зсз5676100 0.0 1009232
18:00+23с35747 0.4 1007190
21:00+24св71167100 0.4 1007233
15 июня, вт
вт1500:00+21вюв5882100 0.1 1007207
03:00+20с679294 0.8 1007204
06:00+20ююв9148775 0.4 1009708
09:00+20ююв10128959 2.4 1010686
12:00+21ю578214 3.0 1011671
15:00+21юз44780 3.2 1011564
18:00+21зюз44743 0.0 1011715
21:00+19сз22801 0.0 1012433
16 июня, ср
ср1600:00+19ссз12812 0.0 1011207
03:00+18с228475 0.0 1011181
06:00+18ссз238740 0.0 1011196
09:00+20зсз347498 0.0 1011397
12:00+21зсз87725 0.0 1011465
15:00+21зсз567533 0.0 1011358
18:00+23ссв45714 0.0 1011187
21:00+20с578515 0.0 1011276
17 июня, чт
чт1700:00+19ссв610855 0.0 1010363
03:00+19ссв588480 0.0 1010429
06:00+19ссв4689100 1.2 1010335
09:00+18ссз3391100 3.2 1010302
12:00+18сз4591100 1.4 1012330
15:00+18ссв3488100 3.3 1013187
18:00+19з338155 0.1 1015556
21:00+19зюз227926 0.2 1016536